TimePST,TemperatureF,Dew PointF,Humidity,Sea Level PressureIn,VisibilityMPH,Wind Direction,Wind SpeedMPH,Gust SpeedMPH,PrecipitationIn,Events,Conditions,WindDirDegrees,DateUTC
12:53 AM,46.0,41.0,83,30.19,10.0,ESE,5.8,-,N/A,,Overcast,120,2012-12-28 08:53:00
1:53 AM,42.1,37.9,85,30.20,10.0,ENE,4.6,-,N/A,,Overcast,60,2012-12-28 09:53:00
2:53 AM,43.0,41.0,93,30.20,10.0,Calm,Calm,-,N/A,,Overcast,0,2012-12-28 10:53:00
3:53 AM,43.0,39.9,89,30.18,10.0,ESE,3.5,-,N/A,,Overcast,120,2012-12-28 11:53:00
4:53 AM,43.0,39.9,89,30.17,10.0,ESE,4.6,-,N/A,,Overcast,110,2012-12-28 12:53:00
5:53 AM,42.1,39.9,92,30.18,10.0,Calm,Calm,-,N/A,,Scattered Clouds,0,2012-12-28 13:53:00
6:53 AM,39.0,37.0,93,30.19,10.0,NE,3.5,-,N/A,,Overcast,50,2012-12-28 14:53:00
7:53 AM,42.1,39.9,92,30.18,10.0,Calm,Calm,-,N/A,,Overcast,0,2012-12-28 15:53:00
8:53 AM,44.1,41.0,89,30.19,10.0,Calm,Calm,-,N/A,,Overcast,0,2012-12-28 16:53:00
9:53 AM,46.0,44.1,93,30.19,10.0,ENE,4.6,-,N/A,,Overcast,70,2012-12-28 17:53:00
10:53 AM,48.0,42.1,80,30.17,10.0,South,6.9,-,N/A,,Overcast,180,2012-12-28 18:53:00
11:53 AM,48.9,42.1,77,30.14,10.0,SSW,3.5,-,N/A,,Overcast,200,2012-12-28 19:53:00
12:53 PM,50.0,41.0,71,30.12,10.0,Calm,Calm,-,N/A,,Overcast,0,2012-12-28 20:53:00
1:53 PM,50.0,39.9,68,30.11,10.0,Calm,Calm,-,N/A,,Overcast,0,2012-12-28 21:53:00
2:53 PM,50.0,42.1,74,30.10,10.0,West,4.6,-,N/A,,Overcast,280,2012-12-28 22:53:00
3:53 PM,53.1,43.0,69,30.09,10.0,Calm,Calm,-,N/A,,Mostly Cloudy,0,2012-12-28 23:53:00
4:53 PM,50.0,43.0,77,30.08,10.0,East,3.5,-,N/A,,Mostly Cloudy,80,2012-12-29 00:53:00
5:53 PM,48.9,42.1,77,30.07,10.0,ENE,6.9,-,N/A,,Mostly Cloudy,60,2012-12-29 01:53:00
6:53 PM,46.9,39.9,77,30.07,10.0,NE,4.6,-,N/A,,Mostly Cloudy,50,2012-12-29 02:53:00
7:53 PM,48.0,42.1,80,30.06,10.0,ENE,10.4,-,N/A,,Mostly Cloudy,70,2012-12-29 03:53:00
8:53 PM,48.0,42.1,80,30.05,10.0,ENE,10.4,-,N/A,,Mostly Cloudy,60,2012-12-29 04:53:00
9:53 PM,48.0,42.1,80,30.05,10.0,ENE,10.4,-,0.00,Rain,Light Rain,70,2012-12-29 05:53:00
10:53 PM,46.9,42.1,83,30.06,10.0,ENE,8.1,-,0.00,,Overcast,60,2012-12-29 06:53:00
11:53 PM,46.0,43.0,89,30.06,10.0,ENE,6.9,-,0.02,Rain,Light Rain,60,2012-12-29 07:53:00